Regional Weather Roundup
Issued by NWS

Home | Current Version | Previous Version | Text Only | Print | Product List | Glossary On
Versions: 1 2 3 4 5 6 7 8 9 10 11 12 13 14 15 16 17 18 19 20 21 22 23 24 25 26 27 28 29 30 31 32 33 34 35 36 37 38 39 40 41 42 43 44 45 46 47 48 49 50
000
ASUS44 KMEG 162010
RWRTN
TENNESSEE HOURLY STATE WEATHER ROUNDUP
NATIONAL WEATHER SERVICE MEMPHIS TN
300 PM CDT TUE SEP 16 2014

TNZ002-004-019-021-049-052-054-088>092-162100-
WEST TENNESSEE

CITY           SKY/WX    TMP DP  RH WIND       PRES   REMARKS
MEMPHIS INTL   CLOUDY    75  67  76 N5        30.08F
NWS MEMPHIS      N/A     74 N/A N/A MISG        N/A
JACKSON        CLOUDY    75  63  66 VRB3      30.09F
DYERSBURG      CLOUDY    72  54  53 NE9       30.11F
UNION CITY     CLOUDY    70  57  64 VRB7      30.10F
PARIS          CLOUDY    68  57  68 N7        30.11F
HUNTINGDON     CLOUDY    70  58  65 NE8       30.10F
LEXINGTON      CLOUDY    70  63  78 N8        30.08F
SAVANNAH       CLOUDY    77  68  73 N6        30.08F
$$

TNZ008-025-027-028-033-062-065-066-162100-
NORTH MIDDLE TENNESSEE

CITY           SKY/WX    TMP DP  RH WIND       PRES   REMARKS
NASHVILLE      PTSUNNY   72  61  68 N7        30.09F
DICKSON        MOSUNNY   66  59  77 N7        30.11F
PORTLAND       MOSUNNY   70  57  64 N6        30.09F
CLARKSVILLE    MOSUNNY   69  56  62 N8        30.10F
LEBANON        CLOUDY    66  62  87 N5        30.09
SMYRNA         CLOUDY    70  63  78 N8        30.10F
MURFREESBORO   CLOUDY    68  63  84 N7        30.09F
COOKEVILLE     CLOUDY    70  64  83 N5        30.09S
LIVINGSTON     CLOUDY    62  61  97 CALM      30.11F
GALLATIN       CLOUDY    68  64  86 N7        30.11F
CROSSVILLE     CLOUDY    70  63  78 W7        30.10F
$$

TNZ061-075-076-078-094-096-097-162100-
SOUTH MIDDLE TENNESSEE

CITY           SKY/WX    TMP DP  RH WIND       PRES   REMARKS
LEWISBURG      CLOUDY    73  67  81 N7        30.08F
FAYETTEVILLE   MOSUNNY   79  66  65 NW7       30.06F
TULLAHOMA      CLOUDY    73  66  78 N7        30.08F
WINCHESTER     PTSUNNY   81  66  61 W7        30.06F
MCMINNVILLE      N/A     72  70  94 N7        30.08F
COLUMBIA       CLOUDY    72  70  94 N7        30.08S
SHELBYVILLE    CLOUDY    73  66  78 N7        30.09S
$$

TNZ017-018-042-046-047-162100-
NORTHEAST TENNESSEE

CITY           SKY/WX    TMP DP  RH WIND       PRES   REMARKS
TRI CITIES     MOSUNNY   77  63  61 W10       30.05F
ELIZABETHTON   PTCLDY    73  64  73 VRB7      30.05S
$$

TNZ012-013-036-069-073-074-162100-
CENTRAL EAST TENNESSEE

CITY           SKY/WX    TMP DP  RH WIND       PRES   REMARKS
KNOXVILLE      CLOUDY    79  65  62 NW9       30.02F
OAK RIDGE      CLOUDY    78  65  63 W7        30.05F
GATLINBURG     MOCLDY    81  64  57 W6        30.01F
MORRISTOWN       N/A     73  64  73 NW6       30.05F
$$

TNZ083-085-099-162100-
SOUTHEAST TENNESSEE

CITY           SKY/WX    TMP DP  RH WIND       PRES   REMARKS
CHATTANOOGA    LGT RAIN  80  68  66 NW8       30.03F
$$

SKY/WX REPORTED AS FAIR MEANS FEW OR NO CLOUDS BELOW
12 THOUSAND FEET.




USA.gov is the U.S. government's official web portal to all federal, state and local government web resources and services.